Location: ??
(35.5052°N, 139.7262°E)
Time: 03:43:50
(UTC+00:00)

Cosmos 1833 Rocket - Pass Details

Date: 20 June 2021
Orbit: 832 x 840 km, 71.0° (Epoch: 26 July)

Event Time Altitude Azimuth Distance (km) Brightness Sun altitude
Exits shadow 17:55:35 19° 196° (SSW) 1,882 4.0 -15.5°
Maximum altitude 17:59:41 83° 111° (ESE) 849 2.7 -14.9°
Drops below altitude 10° 18:05:21 10° 23° (NNE) 2,460 6.2 -14.0°
Sets 18:07:48 0° 23° (NNE) 3,398 7.1 -13.7°
